When you browse on this site, cookies collect data to enhance your experience and personalize the content and advertising you see.
Visit our Privacy Policy to learn more. By continuing to use the site, you agree to this use of cookies and data.
  • In Belgien
  • Länderverzeichnis
  • Für 7 Tage
  • Wassertemperatur
  • Wetterkarte
  • Widgets
  • user-avatar
    Anmelden

    Stündliche Wetter Szolnok

    Heute, 6 April, Montag

    Zeit Temperatur Niederschläge Wind Luftdruck Luftfeuchtigkeit
    00:00 +7°C° 0 mm 3 m/S 763 mmHg 68%
    01:00 +7°C° 0 mm 3 m/S 763 mmHg 68%
    02:00 +7°C° 0 mm 3 m/S 764 mmHg 67%
    03:00 +7°C° 0 mm 3 m/S 764 mmHg 65%
    04:00 +5°C° 0 mm 3 m/S 764 mmHg 64%
    05:00 +7°C° 0 mm 3 m/S 765 mmHg 61%
    06:00 +8°C° 0 mm 2 m/S 765 mmHg 59%
    07:00 +9°C° 0 mm 2 m/S 766 mmHg 58%
    08:00 +10°C° 0 mm 3 m/S 767 mmHg 51%
    09:00 +12°C° 0 mm 3 m/S 767 mmHg 45%
    10:00 +13°C° 0 mm 3 m/S 767 mmHg 38%
    11:00 +14°C° 0 mm 3 m/S 767 mmHg 38%
    12:00 +16°C° 0 mm 3 m/S 767 mmHg 37%
    13:00 +16°C° 0 mm 3 m/S 767 mmHg 36%
    14:00 +16°C° 0 mm 3 m/S 767 mmHg 36%
    15:00 +16°C° 0 mm 3 m/S 767 mmHg 37%
    16:00 +16°C° 0 mm 2 m/S 766 mmHg 38%
    17:00 +15°C° 0 mm 2 m/S 766 mmHg 43%
    18:00 +13°C° 0 mm 2 m/S 766 mmHg 48%
    19:00 +10°C° 0 mm 2 m/S 766 mmHg 52%
    20:00 +10°C° 0 mm 2 m/S 767 mmHg 53%
    21:00 +9°C° 0 mm 2 m/S 767 mmHg 54%
    22:00 +8°C° 0 mm 2 m/S 767 mmHg 55%
    23:00 +9°C° 0 mm 1 m/S 767 mmHg 57%

    Morgen, 7 April, Dienstag

    Zeit Temperatur Niederschläge Wind Luftdruck Luftfeuchtigkeit
    00:00 +8°C° 0 mm 1 m/S 767 mmHg 58%
    01:00 +8°C° 0 mm 1 m/S 767 mmHg 59%
    02:00 +7°C° 0 mm 1 m/S 767 mmHg 60%
    03:00 +7°C° 0 mm 1 m/S 768 mmHg 61%
    04:00 +6°C° 0 mm 1 m/S 768 mmHg 63%
    05:00 +7°C° 0 mm 1 m/S 768 mmHg 61%
    06:00 +9°C° 0 mm 1 m/S 768 mmHg 59%
    07:00 +10°C° 0 mm 1 m/S 768 mmHg 58%
    08:00 +11°C° 0 mm 1 m/S 768 mmHg 53%
    09:00 +13°C° 0 mm 1 m/S 768 mmHg 48%
    10:00 +15°C° 0 mm 1 m/S 768 mmHg 43%
    11:00 +16°C° 0 mm 1 m/S 768 mmHg 40%
    12:00 +18°C° 0 mm 1 m/S 768 mmHg 37%
    13:00 +19°C° 0 mm 1 m/S 768 mmHg 34%
    14:00 +19°C° 0 mm 1 m/S 767 mmHg 34%
    15:00 +19°C° 0 mm 1 m/S 767 mmHg 33%
    16:00 +19°C° 0 mm 1 m/S 766 mmHg 32%
    17:00 +16°C° 0 mm 1 m/S 766 mmHg 37%
    18:00 +13°C° 0 mm 0 m/S 766 mmHg 41%
    19:00 +11°C° 0 mm 0 m/S 766 mmHg 45%
    20:00 +12°C° 0 mm 1 m/S 766 mmHg 46%
    21:00 +11°C° 0 mm 1 m/S 766 mmHg 48%
    22:00 +11°C° 0 mm 1 m/S 767 mmHg 49%
    23:00 +10°C° 0 mm 1 m/S 767 mmHg 50%

    übermorgen, 8 April, Mittwoch

    Zeit Temperatur Niederschläge Wind Luftdruck Luftfeuchtigkeit
    00:00 +10°C° 0 mm 1 m/S 766 mmHg 51%
    01:00 +9°C° 0 mm 1 m/S 766 mmHg 53%
    02:00 +9°C° 0 mm 1 m/S 766 mmHg 54%
    03:00 +7°C° 0 mm 0 m/S 766 mmHg 56%
    04:00 +7°C° 0 mm 0 m/S 766 mmHg 57%
    05:00 +8°C° 0 mm 0 m/S 766 mmHg 56%
    06:00 +9°C° 0 mm 0 m/S 766 mmHg 55%
    07:00 +10°C° 0 mm 0 m/S 766 mmHg 54%
    08:00 +12°C° 0 mm 0 m/S 766 mmHg 50%
    09:00 +14°C° 0 mm 0 m/S 766 mmHg 45%
    10:00 +16°C° 0 mm 0 m/S 765 mmHg 40%
    11:00 +17°C° 0 mm 0 m/S 765 mmHg 38%
    12:00 +19°C° 0 mm 1 m/S 764 mmHg 35%
    13:00 +20°C° 0 mm 1 m/S 764 mmHg 32%
    14:00 +20°C° 0 mm 1 m/S 763 mmHg 32%
    15:00 +20°C° 0 mm 1 m/S 763 mmHg 33%
    16:00 +20°C° 0 mm 1 m/S 762 mmHg 33%
    17:00 +18°C° 0 mm 1 m/S 762 mmHg 37%
    18:00 +15°C° 0 mm 1 m/S 762 mmHg 42%
    19:00 +13°C° 0 mm 1 m/S 762 mmHg 47%
    20:00 +13°C° 0 mm 1 m/S 762 mmHg 49%
    21:00 +12°C° 0 mm 1 m/S 762 mmHg 51%
    22:00 +11°C° 0 mm 1 m/S 762 mmHg 53%
    23:00 +11°C° 0 mm 1 m/S 761 mmHg 55%

    9 April, Donnerstag

    Zeit Temperatur Niederschläge Wind Luftdruck Luftfeuchtigkeit
    00:00 +10°C° 0 mm 1 m/S 761 mmHg 57%
    01:00 +10°C° 0 mm 1 m/S 761 mmHg 58%
    02:00 +10°C° 0 mm 1 m/S 761 mmHg 60%
    03:00 +9°C° 0 mm 1 m/S 761 mmHg 61%
    04:00 +8°C° 0 mm 0 m/S 760 mmHg 63%
    05:00 +9°C° 0 mm 0 m/S 760 mmHg 61%
    06:00 +11°C° 0 mm 1 m/S 760 mmHg 60%
    07:00 +12°C° 0 mm 1 m/S 760 mmHg 58%
    08:00 +14°C° 0 mm 1 m/S 760 mmHg 53%
    09:00 +16°C° 0 mm 1 m/S 760 mmHg 49%
    10:00 +18°C° 0 mm 2 m/S 760 mmHg 44%
    11:00 +18°C° 0 mm 2 m/S 760 mmHg 41%
    12:00 +19°C° 0 mm 2 m/S 760 mmHg 38%
    13:00 +20°C° 0 mm 2 m/S 759 mmHg 35%
    14:00 +20°C° 0 mm 2 m/S 759 mmHg 36%
    15:00 +20°C° 0 mm 2 m/S 759 mmHg 36%
    16:00 +20°C° 0 mm 2 m/S 758 mmHg 37%
    17:00 +18°C° 0 mm 2 m/S 758 mmHg 41%
    18:00 +16°C° 0 mm 2 m/S 758 mmHg 46%
    19:00 +14°C° 0 mm 2 m/S 758 mmHg 50%
    20:00 +13°C° 0 mm 2 m/S 758 mmHg 51%
    21:00 +13°C° 0 mm 2 m/S 758 mmHg 52%
    22:00 +12°C° 0 mm 2 m/S 758 mmHg 53%
    23:00 +12°C° 0 mm 2 m/S 758 mmHg 55%

    10 April, Freitag

    Zeit Temperatur Niederschläge Wind Luftdruck Luftfeuchtigkeit
    00:00 +10°C° 0 mm 2 m/S 758 mmHg 58%
    01:00 +10°C° 0 mm 2 m/S 758 mmHg 60%
    02:00 +9°C° 0 mm 2 m/S 758 mmHg 65%
    03:00 +9°C° 0 mm 2 m/S 758 mmHg 69%
    04:00 +9°C° 0 mm 2 m/S 758 mmHg 74%
    05:00 +9°C° 0 mm 2 m/S 758 mmHg 72%
    06:00 +10°C° 0 mm 2 m/S 758 mmHg 71%
    07:00 +12°C° 0 mm 2 m/S 758 mmHg 69%
    08:00 +14°C° 0 mm 2 m/S 758 mmHg 63%
    09:00 +16°C° 0 mm 2 m/S 758 mmHg 57%
    10:00 +18°C° 0 mm 2 m/S 758 mmHg 52%
    11:00 +19°C° 0 mm 2 m/S 758 mmHg 49%
    12:00 +20°C° 0 mm 2 m/S 758 mmHg 46%
    13:00 +21°C° 0 mm 2 m/S 757 mmHg 43%
    14:00 +21°C° 0 mm 2 m/S 757 mmHg 43%
    15:00 +22°C° 0 mm 1 m/S 757 mmHg 42%
    16:00 +22°C° 0 mm 1 m/S 756 mmHg 42%
    17:00 +20°C° 0 mm 1 m/S 756 mmHg 47%
    18:00 +19°C° 0 mm 1 m/S 756 mmHg 52%
    19:00 +16°C° 0 mm 2 m/S 756 mmHg 57%
    20:00 +15°C° 0 mm 2 m/S 756 mmHg 59%
    21:00 +15°C° 0 mm 2 m/S 756 mmHg 61%
    22:00 +14°C° 0 mm 2 m/S 756 mmHg 62%
    23:00 +14°C° 0 mm 2 m/S 756 mmHg 64%

    11 April, Samstag

    Zeit Temperatur Niederschläge Wind Luftdruck Luftfeuchtigkeit
    00:00 +13°C° 0 mm 2 m/S 756 mmHg 65%
    01:00 +13°C° 0 mm 2 m/S 756 mmHg 67%
    02:00 +12°C° 0 mm 2 m/S 756 mmHg 68%
    03:00 +12°C° 0 mm 2 m/S 756 mmHg 69%
    04:00 +12°C° 0 mm 2 m/S 756 mmHg 70%
    05:00 +13°C° 0 mm 2 m/S 756 mmHg 69%
    06:00 +14°C° 0 mm 2 m/S 756 mmHg 68%
    07:00 +15°C° 0 mm 2 m/S 757 mmHg 67%
    08:00 +17°C° 0 mm 2 m/S 757 mmHg 62%
    09:00 +19°C° 0 mm 2 m/S 757 mmHg 57%
    10:00 +21°C° 0 mm 2 m/S 757 mmHg 52%
    11:00 +21°C° 0 mm 2 m/S 756 mmHg 49%
    12:00 +22°C° 0 mm 3 m/S 756 mmHg 46%
    13:00 +24°C° 0 mm 3 m/S 756 mmHg 43%
    14:00 +24°C° 0 mm 3 m/S 756 mmHg 44%
    15:00 +24°C° 0 mm 2 m/S 755 mmHg 46%
    16:00 +23°C° 0 mm 2 m/S 755 mmHg 48%
    17:00 +21°C° 0 mm 2 m/S 755 mmHg 51%
    18:00 +20°C° 0 mm 2 m/S 755 mmHg 53%
    19:00 +18°C° 0 mm 2 m/S 755 mmHg 56%
    20:00 +18°C° 0 mm 2 m/S 755 mmHg 58%
    21:00 +17°C° 0 mm 2 m/S 756 mmHg 60%
    22:00 +16°C° 0 mm 2 m/S 756 mmHg 62%
    23:00 +16°C° 0 mm 2 m/S 756 mmHg 63%
    Mehr zeigen